N980JS EGPH-CYYT

Flight info

Callsign N980JS
Flight time 5h 13m
Altitude 22000
Route GOSAM P600 TRN/N0490F400 DCT MOLAK DCT ETARI/M086F400 DCT 5630N02000W 5730N03000W 5730N04000W 5530N05000W DCT KODIK/N0507F400 DCT YAY/N0428F170 V315 YQX/N0501F470 DCT MIVAD AVALN5
Aircraft C750/M-SBDE3FGHRWXY/S

Departure

Time 2026-04-07 15:52
Airport Edinburgh Airport (EGPH)

Arrival

Time 2026-04-07 21:05
Airport St. John's International Airport (CYYT)
Time Latitude Longitude Altitude Speed Heading
2026-04-07 15:32 55.94642 -3.35281 107 ft 0 kts 299°
2026-04-07 15:42 55.94643 -3.35282 107 ft 0 kts 304°
2026-04-07 15:43 55.94654 -3.35283 106 ft 5 kts 20°
2026-04-07 15:43 55.94663 -3.35170 107 ft 16 kts 86°
2026-04-07 15:43 55.94700 -3.35133 108 ft 12 kts 315°
2026-04-07 15:44 55.94765 -3.35322 106 ft 26 kts 297°
2026-04-07 15:44 55.94850 -3.35587 104 ft 30 kts 296°
2026-04-07 15:44 55.94921 -3.35812 104 ft 18 kts 305°
2026-04-07 15:44 55.95023 -3.35837 102 ft 16 kts
2026-04-07 15:45 55.95087 -3.35975 102 ft 17 kts 296°
2026-04-07 15:45 55.95126 -3.36196 100 ft 17 kts 288°
2026-04-07 15:45 55.95114 -3.36334 101 ft 11 kts 237°
2026-04-07 15:45 55.95074 -3.36453 104 ft 13 kts 239°
2026-04-07 15:46 55.95012 -3.36635 103 ft 23 kts 238°
2026-04-07 15:46 55.94910 -3.36939 100 ft 35 kts 239°
2026-04-07 15:46 55.94773 -3.37338 104 ft 28 kts 238°
2026-04-07 15:46 55.94685 -3.37603 108 ft 28 kts 241°
2026-04-07 15:47 55.94589 -3.37887 109 ft 32 kts 237°
2026-04-07 15:47 55.94470 -3.38239 107 ft 35 kts 239°
2026-04-07 15:47 55.94362 -3.38558 113 ft 25 kts 238°
2026-04-07 15:47 55.94296 -3.38749 115 ft 16 kts 238°
2026-04-07 15:48 55.94295 -3.38872 114 ft 7 kts 316°
2026-04-07 15:48 55.94321 -3.38902 117 ft 1 kts 329°
2026-04-07 15:48 55.94325 -3.38907 116 ft 0 kts 328°
2026-04-07 15:49 55.94330 -3.38911 116 ft 5 kts 328°
2026-04-07 15:49 55.94399 -3.38968 115 ft 12 kts
2026-04-07 15:50 55.94432 -3.38921 115 ft 0 kts 59°
2026-04-07 15:50 55.94562 -3.38534 111 ft 84 kts 57°
2026-04-07 15:51 55.95006 -3.37230 112 ft 152 kts 59°
2026-04-07 15:51 55.95555 -3.35514 361 ft 178 kts 60°
2026-04-07 15:51 55.96229 -3.33367 425 ft 219 kts 60°
2026-04-07 15:51 55.97226 -3.31109 596 ft 248 kts 38°
2026-04-07 15:52 55.98782 -3.29469 328 ft 268 kts 25°
2026-04-07 15:52 56.00473 -3.28245 508 ft 250 kts 17°
2026-04-07 15:52 56.02121 -3.27952 743 ft 243 kts 352°
2026-04-07 15:52 56.03712 -3.28956 1054 ft 246 kts 327°
2026-04-07 15:53 56.04927 -3.31108 1398 ft 249 kts 302°
2026-04-07 15:53 56.05505 -3.34026 1748 ft 251 kts 276°
2026-04-07 15:53 56.05303 -3.37124 2105 ft 253 kts 250°
2026-04-07 15:53 56.04352 -3.39744 2463 ft 255 kts 225°
2026-04-07 15:54 56.03067 -3.41884 2885 ft 256 kts 226°
2026-04-07 15:54 56.01921 -3.44326 3253 ft 259 kts 240°
2026-04-07 15:54 56.01373 -3.47389 3606 ft 259 kts 257°
2026-04-07 15:54 56.00969 -3.50539 4005 ft 261 kts 256°
2026-04-07 15:55 56.00512 -3.53684 4406 ft 262 kts 255°
2026-04-07 15:55 56.00044 -3.56833 4789 ft 264 kts 256°
2026-04-07 15:55 55.99584 -3.60024 5166 ft 265 kts 256°
2026-04-07 15:55 55.99119 -3.63220 5546 ft 267 kts 255°
2026-04-07 15:56 55.98639 -3.66419 5927 ft 267 kts 255°
2026-04-07 15:56 55.98160 -3.69633 6308 ft 269 kts 255°
2026-04-07 15:56 55.97687 -3.72893 6689 ft 272 kts 256°
2026-04-07 15:56 55.97208 -3.76172 7067 ft 274 kts 255°
2026-04-07 15:57 55.96722 -3.79461 7446 ft 275 kts 255°
2026-04-07 15:57 55.96230 -3.82779 7819 ft 277 kts 255°
2026-04-07 15:57 55.95736 -3.86111 8194 ft 278 kts 255°
2026-04-07 15:57 55.95238 -3.89456 8563 ft 279 kts 255°
2026-04-07 15:58 55.94745 -3.92760 8939 ft 278 kts 255°
2026-04-07 15:58 55.94255 -3.96039 9305 ft 276 kts 255°
2026-04-07 15:58 55.93571 -3.99304 9663 ft 286 kts 244°
2026-04-07 15:58 55.92523 -4.02339 10033 ft 289 kts 233°
2026-04-07 15:59 55.91143 -4.05022 10411 ft 301 kts 223°
2026-04-07 15:59 55.89422 -4.07306 10805 ft 315 kts 214°
2026-04-07 15:59 55.87570 -4.09522 11212 ft 327 kts 215°
2026-04-07 15:59 55.85695 -4.11817 11602 ft 338 kts 215°
2026-04-07 16:00 55.83719 -4.14220 12000 ft 348 kts 214°
2026-04-07 16:00 55.81672 -4.16678 12392 ft 356 kts 214°
2026-04-07 16:00 55.79626 -4.19138 12773 ft 361 kts 214°
2026-04-07 16:00 55.77852 -4.21282 13083 ft 364 kts 215°
2026-04-07 16:01 55.75783 -4.23863 13466 ft 366 kts 216°
2026-04-07 16:01 55.73760 -4.26425 13833 ft 367 kts 216°
2026-04-07 16:01 55.71682 -4.29005 14199 ft 367 kts 215°
2026-04-07 16:01 55.69546 -4.31627 14583 ft 368 kts 215°
2026-04-07 16:02 55.67443 -4.34228 14956 ft 369 kts 215°
2026-04-07 16:02 55.65337 -4.36842 15330 ft 370 kts 216°
2026-04-07 16:02 55.63207 -4.39475 15707 ft 372 kts 215°
2026-04-07 16:02 55.61075 -4.42098 16080 ft 375 kts 215°
2026-04-07 16:03 55.58937 -4.44729 16455 ft 377 kts 215°
2026-04-07 16:03 55.56772 -4.47392 16833 ft 379 kts 215°
2026-04-07 16:03 55.54909 -4.49680 17159 ft 381 kts 215°
2026-04-07 16:03 55.52927 -4.52110 17496 ft 383 kts 215°
2026-04-07 16:04 55.50729 -4.54803 17873 ft 386 kts 215°
2026-04-07 16:04 55.48513 -4.57512 18249 ft 388 kts 215°
2026-04-07 16:04 55.46300 -4.60215 18622 ft 390 kts 215°
2026-04-07 16:04 55.44058 -4.62949 19000 ft 392 kts 215°
2026-04-07 16:05 55.41803 -4.65696 19376 ft 394 kts 215°
2026-04-07 16:05 55.39546 -4.68440 19750 ft 397 kts 215°
2026-04-07 16:05 55.37296 -4.71173 20114 ft 399 kts 215°
2026-04-07 16:05 55.35000 -4.73958 20497 ft 401 kts 215°
2026-04-07 16:06 55.32880 -4.77151 20810 ft 403 kts 229°
2026-04-07 16:06 55.31310 -4.81236 21146 ft 405 kts 243°
2026-04-07 16:06 55.30381 -4.85892 21499 ft 405 kts 256°
2026-04-07 16:06 55.29768 -4.90719 21898 ft 405 kts 258°
2026-04-07 16:07 55.29160 -4.95565 22292 ft 408 kts 257°
2026-04-07 16:07 55.28534 -5.00439 22686 ft 411 kts 257°
2026-04-07 16:07 55.27897 -5.05343 23061 ft 414 kts 257°
2026-04-07 16:07 55.27258 -5.10295 23450 ft 417 kts 257°
2026-04-07 16:08 55.26615 -5.15282 23817 ft 420 kts 257°
2026-04-07 16:08 55.25966 -5.20269 24189 ft 422 kts 257°
2026-04-07 16:08 55.25310 -5.25287 24561 ft 424 kts 257°
2026-04-07 16:08 55.24646 -5.30358 24941 ft 427 kts 257°
2026-04-07 16:09 55.23980 -5.35428 25314 ft 429 kts 257°
2026-04-07 16:09 55.23308 -5.40531 25688 ft 431 kts 257°
2026-04-07 16:09 55.22628 -5.45663 26065 ft 434 kts 257°
2026-04-07 16:09 55.21943 -5.50824 26439 ft 436 kts 257°
2026-04-07 16:10 55.21250 -5.56027 26816 ft 439 kts 257°
2026-04-07 16:10 55.20551 -5.61248 27192 ft 442 kts 257°
2026-04-07 16:10 55.19847 -5.66498 27567 ft 444 kts 257°
2026-04-07 16:10 55.19145 -5.71707 27939 ft 447 kts 257°
2026-04-07 16:11 55.18427 -5.77020 28316 ft 450 kts 257°
2026-04-07 16:11 55.17707 -5.82330 28687 ft 452 kts 257°
2026-04-07 16:11 55.16973 -5.87718 29068 ft 455 kts 257°
2026-04-07 16:11 55.16235 -5.93125 29439 ft 457 kts 257°
2026-04-07 16:12 55.15493 -5.98538 29813 ft 459 kts 256°
2026-04-07 16:12 55.14743 -6.03981 30190 ft 461 kts 256°
2026-04-07 16:12 55.13989 -6.09444 30563 ft 463 kts 256°
2026-04-07 16:12 55.13228 -6.14934 30935 ft 465 kts 256°
2026-04-07 16:13 55.12467 -6.20408 31305 ft 465 kts 256°
2026-04-07 16:13 55.11702 -6.25887 31681 ft 465 kts 256°
2026-04-07 16:13 55.10929 -6.31397 32057 ft 465 kts 256°
2026-04-07 16:13 55.10158 -6.36881 32428 ft 464 kts 256°
2026-04-07 16:14 55.09384 -6.42369 32800 ft 463 kts 256°
2026-04-07 16:14 55.08616 -6.47788 33168 ft 462 kts 256°
2026-04-07 16:14 55.07839 -6.53261 33543 ft 461 kts 256°
2026-04-07 16:14 55.07071 -6.58641 33902 ft 460 kts 256°
2026-04-07 16:15 55.06292 -6.64086 34274 ft 458 kts 256°
2026-04-07 16:15 55.05517 -6.69484 34644 ft 458 kts 256°
2026-04-07 16:15 55.04741 -6.74860 35012 ft 457 kts 256°
2026-04-07 16:15 55.03968 -6.80209 35380 ft 457 kts 256°
2026-04-07 16:16 55.03188 -6.85583 35751 ft 456 kts 256°
2026-04-07 16:16 55.02404 -6.90965 36119 ft 456 kts 256°
2026-04-07 16:16 55.01624 -6.96309 36488 ft 455 kts 256°
2026-04-07 16:16 55.00851 -7.01581 36849 ft 455 kts 256°
2026-04-07 16:17 55.00064 -7.06931 37219 ft 455 kts 256°
2026-04-07 16:17 54.99277 -7.12261 37586 ft 455 kts 256°
2026-04-07 16:17 54.98484 -7.17616 37949 ft 455 kts 256°
2026-04-07 16:17 54.97689 -7.22967 38318 ft 456 kts 256°
2026-04-07 16:18 54.96891 -7.28321 38669 ft 456 kts 255°
2026-04-07 16:18 54.96084 -7.33719 38646 ft 464 kts 255°
2026-04-07 16:18 54.94438 -7.44663 38498 ft 466 kts 255°
2026-04-07 16:19 54.92811 -7.55409 38340 ft 458 kts 255°
2026-04-07 16:19 54.91997 -7.60762 38131 ft 458 kts 255°
2026-04-07 16:19 54.91181 -7.66112 37879 ft 458 kts 255°
2026-04-07 16:20 54.90359 -7.71476 37630 ft 457 kts 255°
2026-04-07 16:20 54.89537 -7.76827 37379 ft 457 kts 255°
2026-04-07 16:20 54.88718 -7.82144 37133 ft 456 kts 255°
2026-04-07 16:20 54.87897 -7.87456 36889 ft 456 kts 255°
2026-04-07 16:21 54.87069 -7.92792 36643 ft 456 kts 255°
2026-04-07 16:21 54.86253 -7.98037 36400 ft 456 kts 255°
2026-04-07 16:21 54.85423 -8.03352 36156 ft 456 kts 255°
2026-04-07 16:21 54.84589 -8.08675 35912 ft 456 kts 255°
2026-04-07 16:22 54.83753 -8.13996 35665 ft 456 kts 255°
2026-04-07 16:22 54.82916 -8.19306 35418 ft 457 kts 255°
2026-04-07 16:22 54.82074 -8.24630 35172 ft 458 kts 255°
2026-04-07 16:22 54.81229 -8.29962 34925 ft 458 kts 255°
2026-04-07 16:23 54.80381 -8.35288 34679 ft 458 kts 255°
2026-04-07 16:23 54.79532 -8.40607 34433 ft 458 kts 255°
2026-04-07 16:23 54.78682 -8.45917 34187 ft 458 kts 255°
2026-04-07 16:23 54.77837 -8.51176 33945 ft 458 kts 255°
2026-04-07 16:24 54.76981 -8.56486 33700 ft 459 kts 255°
2026-04-07 16:24 54.76117 -8.61835 33453 ft 460 kts 254°
2026-04-07 16:24 54.75253 -8.67161 33209 ft 462 kts 254°
2026-04-07 16:24 54.74379 -8.72537 32963 ft 462 kts 254°
2026-04-07 16:25 54.73511 -8.77872 32698 ft 462 kts 254°
2026-04-07 16:25 54.72925 -8.81508 32529 ft 462 kts 255°
2026-04-07 16:25 54.72050 -8.86861 32273 ft 462 kts 254°
2026-04-07 16:25 54.71170 -8.92141 32023 ft 462 kts 254°
2026-04-07 16:26 54.70281 -8.97481 31775 ft 462 kts 254°
2026-04-07 16:26 54.69399 -9.02833 31530 ft 463 kts 254°
2026-04-07 16:26 54.68513 -9.08192 31278 ft 463 kts 254°
2026-04-07 16:26 54.67618 -9.13548 31037 ft 464 kts 254°
2026-04-07 16:27 54.66718 -9.18913 30789 ft 465 kts 254°
2026-04-07 16:27 54.65821 -9.24276 30545 ft 466 kts 254°
2026-04-07 16:27 54.64915 -9.29669 30297 ft 466 kts 254°
2026-04-07 16:27 54.64010 -9.35029 30048 ft 464 kts 254°
2026-04-07 16:28 54.63110 -9.40351 29799 ft 462 kts 254°
2026-04-07 16:28 54.62228 -9.45665 29545 ft 459 kts 255°
2026-04-07 16:28 54.61897 -9.51098 29197 ft 457 kts 272°
2026-04-07 16:28 54.62445 -9.56465 28912 ft 455 kts 286°
2026-04-07 16:29 54.63402 -9.61666 28689 ft 451 kts 288°
2026-04-07 16:29 54.64389 -9.66795 28461 ft 449 kts 288°
2026-04-07 16:29 54.65356 -9.71930 28225 ft 448 kts 287°
2026-04-07 16:29 54.66279 -9.76997 27985 ft 447 kts 287°
2026-04-07 16:30 54.67229 -9.82182 27732 ft 446 kts 287°
2026-04-07 16:30 54.68179 -9.87284 27486 ft 445 kts 288°
2026-04-07 16:30 54.69109 -9.92305 27243 ft 443 kts 287°
2026-04-07 16:30 54.70036 -9.97374 26987 ft 441 kts 287°
2026-04-07 16:31 54.70956 -10.02427 26735 ft 440 kts 287°
2026-04-07 16:31 54.71878 -10.07474 26485 ft 438 kts 287°
2026-04-07 16:31 54.72791 -10.12479 26235 ft 436 kts 287°
2026-04-07 16:31 54.73697 -10.17470 25985 ft 434 kts 287°
2026-04-07 16:32 54.74599 -10.22460 25733 ft 432 kts 287°
2026-04-07 16:32 54.75494 -10.27419 25484 ft 431 kts 287°
2026-04-07 16:32 54.76386 -10.32373 25233 ft 429 kts 287°
2026-04-07 16:32 54.77270 -10.37299 24983 ft 428 kts 287°
2026-04-07 16:33 54.78152 -10.42221 24732 ft 426 kts 287°
2026-04-07 16:33 54.79010 -10.47030 24486 ft 424 kts 287°
2026-04-07 16:33 54.79881 -10.51922 24237 ft 423 kts 287°
2026-04-07 16:33 54.80745 -10.56783 23984 ft 421 kts 287°
2026-04-07 16:34 54.81603 -10.61625 23734 ft 420 kts 287°
2026-04-07 16:34 54.82455 -10.66452 23485 ft 418 kts 287°
2026-04-07 16:34 54.83304 -10.71267 23234 ft 416 kts 287°
2026-04-07 16:34 54.84144 -10.76052 22984 ft 415 kts 287°
2026-04-07 16:35 54.84986 -10.80851 22732 ft 413 kts 287°
2026-04-07 16:35 54.85818 -10.85611 22482 ft 412 kts 287°
2026-04-07 16:35 54.86646 -10.90361 22231 ft 410 kts 287°
2026-04-07 16:35 54.87469 -10.95094 22002 ft 409 kts 287°
2026-04-07 16:36 54.88286 -10.99806 22001 ft 405 kts 287°
2026-04-07 16:36 54.89095 -11.04484 22004 ft 407 kts 287°
2026-04-07 16:36 54.89910 -11.09212 22009 ft 409 kts 286°
2026-04-07 16:36 54.90729 -11.13972 22007 ft 410 kts 286°
2026-04-07 16:37 54.91544 -11.18719 22010 ft 410 kts 286°
2026-04-07 16:37 54.92356 -11.23463 22007 ft 410 kts 286°
2026-04-07 16:37 54.93168 -11.28223 22008 ft 410 kts 286°
2026-04-07 16:37 54.93965 -11.32906 22007 ft 410 kts 286°
2026-04-07 16:38 54.94784 -11.37732 22007 ft 410 kts 286°
2026-04-07 16:38 54.95590 -11.42489 22007 ft 410 kts 286°
2026-04-07 16:38 54.96382 -11.47182 22007 ft 410 kts 286°
2026-04-07 16:38 54.97184 -11.51946 22007 ft 410 kts 286°
2026-04-07 16:39 54.97985 -11.56715 22007 ft 410 kts 286°
2026-04-07 16:39 54.98781 -11.61467 22007 ft 410 kts 286°
2026-04-07 16:39 54.99580 -11.66254 22007 ft 410 kts 286°
2026-04-07 16:39 55.00373 -11.71014 22020 ft 409 kts 286°
2026-04-07 16:40 55.01155 -11.75722 22401 ft 402 kts 286°
2026-04-07 16:40 55.01939 -11.80452 22772 ft 409 kts 286°
2026-04-07 16:40 55.02728 -11.85229 23148 ft 414 kts 286°
2026-04-07 16:40 55.03529 -11.90095 23531 ft 418 kts 286°
2026-04-07 16:41 55.04332 -11.94978 23911 ft 421 kts 285°
2026-04-07 16:41 55.05137 -11.99898 24288 ft 423 kts 285°
2026-04-07 16:41 55.05947 -12.04857 24665 ft 425 kts 285°
2026-04-07 16:41 55.06757 -12.09830 25039 ft 427 kts 285°
2026-04-07 16:42 55.07570 -12.14832 25415 ft 430 kts 285°
2026-04-07 16:42 55.08386 -12.19873 25792 ft 432 kts 285°
2026-04-07 16:42 55.09204 -12.24940 26166 ft 435 kts 285°
2026-04-07 16:42 55.10025 -12.30043 26546 ft 437 kts 285°
2026-04-07 16:43 55.10836 -12.35100 26913 ft 440 kts 285°
2026-04-07 16:43 55.11670 -12.40313 27291 ft 443 kts 285°
2026-04-07 16:43 55.12500 -12.45514 27666 ft 445 kts 285°
2026-04-07 16:43 55.13321 -12.50677 28037 ft 448 kts 285°
2026-04-07 16:44 55.14153 -12.55932 28409 ft 450 kts 285°
2026-04-07 16:44 55.14990 -12.61226 28788 ft 453 kts 285°
2026-04-07 16:44 55.15825 -12.66531 29162 ft 455 kts 285°
2026-04-07 16:44 55.16672 -12.71921 29540 ft 458 kts 285°
2026-04-07 16:45 55.17513 -12.77296 29915 ft 461 kts 285°
2026-04-07 16:45 55.18358 -12.82713 30290 ft 463 kts 285°
2026-04-07 16:45 55.19206 -12.88166 30665 ft 465 kts 285°
2026-04-07 16:45 55.20054 -12.93641 31039 ft 467 kts 285°
2026-04-07 16:46 55.20902 -12.99136 31412 ft 467 kts 285°
2026-04-07 16:46 55.21747 -13.04620 31783 ft 465 kts 285°
2026-04-07 16:46 55.22586 -13.10088 32155 ft 463 kts 285°
2026-04-07 16:46 55.23419 -13.15539 32519 ft 462 kts 285°
2026-04-07 16:47 55.24246 -13.20966 32899 ft 461 kts 285°
2026-04-07 16:47 55.25073 -13.26411 33264 ft 461 kts 284°
2026-04-07 16:47 55.25894 -13.31834 33630 ft 460 kts 284°
2026-04-07 16:47 55.26712 -13.37256 33998 ft 459 kts 284°
2026-04-07 16:48 55.27515 -13.42597 34364 ft 459 kts 284°
2026-04-07 16:48 55.28325 -13.47998 34739 ft 458 kts 284°
2026-04-07 16:48 55.29130 -13.53392 35103 ft 457 kts 284°
2026-04-07 16:49 55.30730 -13.64158 35838 ft 455 kts 284°
2026-04-07 16:49 55.31527 -13.69543 36206 ft 455 kts 284°
2026-04-07 16:49 55.32317 -13.74909 36574 ft 454 kts 284°
2026-04-07 16:49 55.33107 -13.80283 36941 ft 454 kts 284°
2026-04-07 16:50 55.33891 -13.85640 37307 ft 454 kts 284°
2026-04-07 16:50 55.34677 -13.91027 37676 ft 454 kts 284°
2026-04-07 16:50 55.35457 -13.96395 38043 ft 454 kts 284°
2026-04-07 16:50 55.36238 -14.01783 38423 ft 454 kts 284°
2026-04-07 16:51 55.37019 -14.07190 38781 ft 455 kts 284°
2026-04-07 16:51 55.37794 -14.12576 39148 ft 455 kts 284°
2026-04-07 16:51 55.38565 -14.17955 39514 ft 455 kts 284°
2026-04-07 16:51 55.39337 -14.23358 39876 ft 455 kts 284°
2026-04-07 16:52 55.40111 -14.28794 39997 ft 462 kts 284°
2026-04-07 16:52 55.41695 -14.39973 40010 ft 479 kts 284°
2026-04-07 16:53 55.43321 -14.51536 40014 ft 495 kts 284°
2026-04-07 16:53 55.44992 -14.63516 40007 ft 511 kts 283°
2026-04-07 16:54 55.46695 -14.75812 40011 ft 522 kts 283°
2026-04-07 16:54 55.48401 -14.88241 40008 ft 520 kts 283°
2026-04-07 16:55 55.50135 -15.00496 39988 ft 517 kts 287°
2026-04-07 16:55 55.52769 -15.12296 39993 ft 516 kts 292°
2026-04-07 16:56 55.55422 -15.24090 39997 ft 517 kts 290°
2026-04-07 16:56 55.57774 -15.34775 40004 ft 518 kts 291°
2026-04-07 16:57 55.60415 -15.46545 40006 ft 519 kts 291°
2026-04-07 16:57 55.63012 -15.58458 40006 ft 519 kts 291°
2026-04-07 16:58 55.65638 -15.70356 40007 ft 518 kts 291°
2026-04-07 16:58 55.68223 -15.82289 40006 ft 518 kts 291°
2026-04-07 16:59 55.70813 -15.94213 40006 ft 518 kts 291°
2026-04-07 16:59 55.73379 -16.06161 40007 ft 518 kts 290°
2026-04-07 17:00 55.75927 -16.18052 40006 ft 518 kts 290°
2026-04-07 17:00 55.78473 -16.30030 40004 ft 518 kts 290°
2026-04-07 17:01 55.81011 -16.42023 40004 ft 518 kts 290°
2026-04-07 17:01 55.83538 -16.54046 40003 ft 518 kts 290°
2026-04-07 17:02 55.86056 -16.66092 40002 ft 518 kts 290°
2026-04-07 17:02 55.88556 -16.78128 40004 ft 518 kts 290°
2026-04-07 17:03 55.91030 -16.90108 40003 ft 518 kts 290°
2026-04-07 17:03 55.93506 -17.02169 40003 ft 518 kts 290°
2026-04-07 17:04 55.95971 -17.14252 40004 ft 518 kts 290°
2026-04-07 17:04 55.98427 -17.26361 40004 ft 518 kts 290°
2026-04-07 17:05 56.00868 -17.38471 40005 ft 518 kts 289°
2026-04-07 17:05 56.03299 -17.50608 40005 ft 518 kts 289°
2026-04-07 17:06 56.05720 -17.62763 40008 ft 518 kts 289°
2026-04-07 17:06 56.08127 -17.74929 40007 ft 518 kts 289°
2026-04-07 17:07 56.10520 -17.87103 40005 ft 518 kts 289°
2026-04-07 17:07 56.12901 -17.99284 40006 ft 518 kts 289°
2026-04-07 17:08 56.15016 -18.10174 40008 ft 518 kts 289°
2026-04-07 17:08 56.16980 -18.20337 40009 ft 518 kts 289°
2026-04-07 17:09 56.19332 -18.32587 40005 ft 518 kts 289°
2026-04-07 17:09 56.21666 -18.44813 40005 ft 518 kts 289°
2026-04-07 17:10 56.23991 -18.57077 40005 ft 518 kts 288°
2026-04-07 17:10 56.26305 -18.69356 40006 ft 518 kts 288°
2026-04-07 17:11 56.28605 -18.81643 40004 ft 518 kts 288°
2026-04-07 17:11 56.30885 -18.93900 40003 ft 518 kts 288°
2026-04-07 17:12 56.33162 -19.06227 40004 ft 518 kts 288°
2026-04-07 17:12 56.35422 -19.18537 40006 ft 518 kts 288°
2026-04-07 17:13 56.37674 -19.30887 40006 ft 518 kts 288°
2026-04-07 17:13 56.39907 -19.43216 40007 ft 518 kts 288°
2026-04-07 17:14 56.42080 -19.55288 40007 ft 518 kts 288°
2026-04-07 17:14 56.44293 -19.67670 40005 ft 518 kts 288°
2026-04-07 17:15 56.46502 -19.80108 40004 ft 518 kts 288°
2026-04-07 17:15 56.48666 -19.92380 40009 ft 518 kts 287°
2026-04-07 17:16 56.50709 -20.04783 39996 ft 518 kts 284°
2026-04-07 17:16 56.52476 -20.17432 39996 ft 518 kts 284°
2026-04-07 17:17 56.54286 -20.30078 39997 ft 518 kts 284°
2026-04-07 17:17 56.56052 -20.42768 40000 ft 518 kts 284°
2026-04-07 17:18 56.57819 -20.55422 39999 ft 518 kts 284°
2026-04-07 17:18 56.59565 -20.68113 39998 ft 518 kts 284°
2026-04-07 17:19 56.61293 -20.80731 39997 ft 518 kts 284°
2026-04-07 17:19 56.63015 -20.93438 39998 ft 518 kts 283°
2026-04-07 17:20 56.64730 -21.06182 39998 ft 518 kts 283°
2026-04-07 17:20 56.66425 -21.18902 39999 ft 518 kts 283°
2026-04-07 17:21 56.68110 -21.31643 39999 ft 518 kts 283°
2026-04-07 17:21 56.69783 -21.44411 39999 ft 518 kts 283°
2026-04-07 17:22 56.71440 -21.57161 39999 ft 518 kts 283°
2026-04-07 17:22 56.73078 -21.69880 39999 ft 518 kts 283°
2026-04-07 17:23 56.74687 -21.82489 40002 ft 518 kts 283°
2026-04-07 17:23 56.76305 -21.95273 40000 ft 518 kts 283°
2026-04-07 17:24 56.77912 -22.08084 39999 ft 518 kts 283°
2026-04-07 17:24 56.79497 -22.20843 40000 ft 518 kts 282°
2026-04-07 17:25 56.81078 -22.33676 40000 ft 518 kts 282°
2026-04-07 17:25 56.82647 -22.46536 40000 ft 518 kts 282°
2026-04-07 17:26 56.84202 -22.59396 40000 ft 518 kts 282°
2026-04-07 17:26 56.85742 -22.72258 40000 ft 518 kts 282°
2026-04-07 17:27 56.87258 -22.85032 40000 ft 518 kts 282°
2026-04-07 17:27 56.88772 -22.97922 40000 ft 518 kts 282°
2026-04-07 17:28 56.90274 -23.10824 40000 ft 518 kts 282°
2026-04-07 17:28 56.91729 -23.23440 40004 ft 518 kts 282°
2026-04-07 17:29 56.93203 -23.36350 40001 ft 518 kts 282°
2026-04-07 17:29 56.94664 -23.49278 40001 ft 518 kts 281°
2026-04-07 17:30 56.96112 -23.62211 40001 ft 518 kts 281°
2026-04-07 17:30 56.97547 -23.75155 40002 ft 518 kts 281°
2026-04-07 17:31 56.98968 -23.88113 40001 ft 518 kts 281°
2026-04-07 17:31 57.00375 -24.01069 40001 ft 518 kts 281°
2026-04-07 17:32 57.01762 -24.13973 40002 ft 518 kts 281°
2026-04-07 17:32 57.03141 -24.26939 40002 ft 518 kts 281°
2026-04-07 17:33 57.04533 -24.40166 40002 ft 518 kts 281°
2026-04-07 17:33 57.05853 -24.52847 40004 ft 518 kts 281°
2026-04-07 17:34 57.07196 -24.65879 40003 ft 518 kts 281°
2026-04-07 17:34 57.08524 -24.78903 40002 ft 518 kts 280°
2026-04-07 17:35 57.09838 -24.91939 40002 ft 518 kts 280°
2026-04-07 17:35 57.11137 -25.04965 40002 ft 518 kts 280°
2026-04-07 17:36 57.12422 -25.18023 40001 ft 518 kts 280°
2026-04-07 17:36 57.13699 -25.31086 40002 ft 518 kts 280°
2026-04-07 17:37 57.14956 -25.44140 40002 ft 518 kts 280°
2026-04-07 17:37 57.16194 -25.57134 40003 ft 518 kts 279°
2026-04-07 17:38 57.17431 -25.70262 40005 ft 518 kts 279°
2026-04-07 17:38 57.18643 -25.83285 40004 ft 518 kts 279°
2026-04-07 17:39 57.19848 -25.96388 40004 ft 518 kts 279°
2026-04-07 17:39 57.21037 -26.09470 40004 ft 518 kts 279°
2026-04-07 17:40 57.22216 -26.22604 40004 ft 518 kts 279°
2026-04-07 17:40 57.23374 -26.35660 40004 ft 518 kts 279°
2026-04-07 17:41 57.24531 -26.48866 40003 ft 518 kts 279°
2026-04-07 17:41 57.25661 -26.61926 40004 ft 518 kts 279°
2026-04-07 17:42 57.26784 -26.75082 40005 ft 518 kts 279°
2026-04-07 17:42 57.27892 -26.88226 40004 ft 518 kts 278°
2026-04-07 17:43 57.28986 -27.01373 40004 ft 518 kts 278°
2026-04-07 17:43 57.30069 -27.14561 40004 ft 518 kts 278°
2026-04-07 17:44 57.31135 -27.27723 40005 ft 518 kts 278°
2026-04-07 17:44 57.32191 -27.40926 40006 ft 518 kts 278°
2026-04-07 17:45 57.33233 -27.54140 40005 ft 518 kts 278°
2026-04-07 17:45 57.34250 -27.67227 40005 ft 518 kts 278°
2026-04-07 17:46 57.35263 -27.80439 40006 ft 518 kts 278°
2026-04-07 17:46 57.36261 -27.93650 40005 ft 518 kts 278°
2026-04-07 17:47 57.37250 -28.06914 40005 ft 518 kts 278°
2026-04-07 17:47 57.38221 -28.20151 40006 ft 518 kts 277°
2026-04-07 17:48 57.39179 -28.33399 40005 ft 518 kts 277°
2026-04-07 17:48 57.40116 -28.46552 40006 ft 518 kts 277°
2026-04-07 17:49 57.41047 -28.59821 40007 ft 518 kts 277°
2026-04-07 17:49 57.41961 -28.73062 40007 ft 518 kts 277°
2026-04-07 17:50 57.42864 -28.86349 40007 ft 518 kts 277°
2026-04-07 17:50 57.43752 -28.99626 40008 ft 518 kts 277°
2026-04-07 17:51 57.44627 -29.12918 40008 ft 518 kts 277°
2026-04-07 17:51 57.45486 -29.26193 40008 ft 518 kts 277°
2026-04-07 17:52 57.46334 -29.39512 40007 ft 518 kts 276°
2026-04-07 17:52 57.47160 -29.52719 40007 ft 518 kts 276°
2026-04-07 17:53 57.47978 -29.66020 40007 ft 518 kts 276°
2026-04-07 17:53 57.49178 -29.85974 40010 ft 518 kts 276°
2026-04-07 17:54 57.49961 -29.99304 40006 ft 518 kts 276°
2026-04-07 17:54 57.50404 -30.10420 40001 ft 518 kts 274°
2026-04-07 17:55 57.50925 -30.23779 40003 ft 518 kts 274°
2026-04-07 17:55 57.51418 -30.37149 40004 ft 518 kts 274°
2026-04-07 17:56 57.51904 -30.50520 40005 ft 518 kts 274°
2026-04-07 17:56 57.52372 -30.63892 40005 ft 518 kts 274°
2026-04-07 17:57 57.52828 -30.77285 40004 ft 518 kts 274°
2026-04-07 17:57 57.53268 -30.90668 40004 ft 518 kts 273°
2026-04-07 17:58 57.53695 -31.04049 40004 ft 518 kts 273°
2026-04-07 17:58 57.54105 -31.17365 40004 ft 518 kts 273°
2026-04-07 17:59 57.54504 -31.30779 40004 ft 518 kts 273°
2026-04-07 17:59 57.54889 -31.44193 40004 ft 518 kts 273°
2026-04-07 18:00 57.55257 -31.57495 40003 ft 518 kts 273°
2026-04-07 18:00 57.55613 -31.70917 40005 ft 518 kts 272°
2026-04-07 18:01 57.55954 -31.84288 40005 ft 518 kts 272°
2026-04-07 18:01 57.56282 -31.97691 40004 ft 518 kts 272°
2026-04-07 18:02 57.56559 -32.09492 40005 ft 518 kts 272°
2026-04-07 18:02 57.56858 -32.22835 40002 ft 518 kts 272°
2026-04-07 18:03 57.57145 -32.36248 40001 ft 518 kts 272°
2026-04-07 18:03 57.57417 -32.49652 40002 ft 518 kts 272°
2026-04-07 18:04 57.57675 -32.63071 40004 ft 518 kts 272°
2026-04-07 18:04 57.57920 -32.76501 40005 ft 518 kts 272°
2026-04-07 18:05 57.58150 -32.89929 40005 ft 518 kts 272°
2026-04-07 18:05 57.58364 -33.03264 40005 ft 518 kts 271°
2026-04-07 18:06 57.58566 -33.16704 40005 ft 518 kts 271°
2026-04-07 18:06 57.58722 -33.27781 40007 ft 518 kts 271°
2026-04-07 18:07 57.58915 -33.42628 40002 ft 518 kts 271°
2026-04-07 18:07 57.59074 -33.56044 40002 ft 518 kts 271°
2026-04-07 18:08 57.59220 -33.69461 40004 ft 518 kts 271°
2026-04-07 18:08 57.59351 -33.82895 39999 ft 518 kts 271°
2026-04-07 18:09 57.59468 -33.96323 40001 ft 518 kts 271°
2026-04-07 18:09 57.59571 -34.09748 40001 ft 518 kts 271°
2026-04-07 18:10 57.59660 -34.23194 40000 ft 518 kts 270°
2026-04-07 18:10 57.59734 -34.36539 39996 ft 518 kts 270°
2026-04-07 18:11 57.59794 -34.50062 39997 ft 518 kts 270°
2026-04-07 18:11 57.59840 -34.63408 39997 ft 518 kts 270°
2026-04-07 18:12 57.59871 -34.76825 39999 ft 518 kts 270°
2026-04-07 18:12 57.59889 -34.90267 39999 ft 518 kts 270°
2026-04-07 18:13 57.59892 -35.03716 40001 ft 518 kts 270°
2026-04-07 18:13 57.59881 -35.17157 40007 ft 518 kts 270°
2026-04-07 18:14 57.59856 -35.30589 40009 ft 518 kts 270°
2026-04-07 18:14 57.59817 -35.43939 40009 ft 518 kts 269°
2026-04-07 18:15 57.59763 -35.57372 40009 ft 518 kts 269°
2026-04-07 18:15 57.59695 -35.70817 40009 ft 518 kts 269°
2026-04-07 18:16 57.59613 -35.84240 40008 ft 518 kts 269°
2026-04-07 18:16 57.59516 -35.97653 40008 ft 518 kts 269°
2026-04-07 18:17 57.59405 -36.11110 40009 ft 518 kts 269°
2026-04-07 18:17 57.59281 -36.24466 40009 ft 518 kts 269°
2026-04-07 18:18 57.59142 -36.37872 40008 ft 518 kts 269°
2026-04-07 18:18 57.58989 -36.51296 40010 ft 518 kts 269°
2026-04-07 18:19 57.58821 -36.64745 40007 ft 518 kts 269°
2026-04-07 18:19 57.58639 -36.78171 40006 ft 518 kts 268°
2026-04-07 18:20 57.58443 -36.91593 40006 ft 518 kts 268°
2026-04-07 18:20 57.58233 -37.05016 40005 ft 518 kts 268°
2026-04-07 18:21 57.58008 -37.18443 40005 ft 518 kts 268°
2026-04-07 18:21 57.57770 -37.31849 40006 ft 518 kts 268°
2026-04-07 18:22 57.57516 -37.45272 40006 ft 518 kts 268°
2026-04-07 18:22 57.57249 -37.58685 40006 ft 518 kts 268°
2026-04-07 18:23 57.56968 -37.72091 40005 ft 518 kts 268°
2026-04-07 18:23 57.56673 -37.85495 40005 ft 518 kts 268°
2026-04-07 18:24 57.56365 -37.98827 40005 ft 518 kts 267°
2026-04-07 18:24 57.56040 -38.12251 40005 ft 518 kts 267°
2026-04-07 18:25 57.55702 -38.25647 40004 ft 518 kts 267°
2026-04-07 18:25 57.55350 -38.39052 40004 ft 518 kts 267°
2026-04-07 18:26 57.54983 -38.52456 40005 ft 518 kts 267°
2026-04-07 18:26 57.54602 -38.65853 40006 ft 518 kts 267°
2026-04-07 18:27 57.54208 -38.79239 40005 ft 518 kts 266°
2026-04-07 18:27 57.53801 -38.92540 40005 ft 518 kts 266°
2026-04-07 18:28 57.53375 -39.06012 40009 ft 518 kts 266°
2026-04-07 18:28 57.52941 -39.19321 40009 ft 518 kts 266°
2026-04-07 18:29 57.52489 -39.32691 40008 ft 518 kts 266°
2026-04-07 18:29 57.52024 -39.46070 40007 ft 518 kts 266°
2026-04-07 18:30 57.51544 -39.59437 40007 ft 518 kts 266°
2026-04-07 18:30 57.51051 -39.72799 40007 ft 518 kts 266°
2026-04-07 18:31 57.50542 -39.86176 40007 ft 518 kts 266°
2026-04-07 18:31 57.49953 -39.99536 39992 ft 518 kts 262°
2026-04-07 18:32 57.48147 -40.12487 39995 ft 518 kts 252°
2026-04-07 18:32 57.46109 -40.25328 40004 ft 518 kts 255°
2026-04-07 18:33 57.44197 -40.38215 40008 ft 518 kts 253°
2026-04-07 18:33 57.42144 -40.51064 40010 ft 518 kts 254°
2026-04-07 18:34 57.40180 -40.63924 40009 ft 518 kts 253°
2026-04-07 18:34 57.38131 -40.76725 40008 ft 518 kts 253°
2026-04-07 18:35 57.36118 -40.89552 40007 ft 518 kts 253°
2026-04-07 18:35 57.34061 -41.02333 40007 ft 518 kts 253°
2026-04-07 18:36 57.32008 -41.15131 40008 ft 518 kts 253°
2026-04-07 18:36 57.29946 -41.27811 40008 ft 518 kts 253°
2026-04-07 18:37 57.27863 -41.40570 40008 ft 518 kts 253°
2026-04-07 18:37 57.25762 -41.53318 40009 ft 518 kts 253°
2026-04-07 18:38 57.23652 -41.66051 40009 ft 518 kts 253°
2026-04-07 18:38 57.21525 -41.78779 40008 ft 518 kts 253°
2026-04-07 18:39 57.19391 -41.91463 40008 ft 518 kts 253°
2026-04-07 18:39 57.17603 -42.02021 40009 ft 518 kts 253°
2026-04-07 18:40 57.15092 -42.16745 40009 ft 518 kts 252°
2026-04-07 18:40 57.13280 -42.27292 40008 ft 518 kts 252°
2026-04-07 18:41 57.11080 -42.40021 40009 ft 518 kts 252°
2026-04-07 18:41 57.08897 -42.52557 40007 ft 518 kts 252°
2026-04-07 18:42 57.06684 -42.65181 40007 ft 518 kts 252°
2026-04-07 18:42 57.04461 -42.77776 40007 ft 518 kts 252°
2026-04-07 18:43 57.02229 -42.90336 40007 ft 518 kts 252°
2026-04-07 18:43 56.99980 -43.02905 40006 ft 518 kts 252°
2026-04-07 18:44 56.97715 -43.15477 40006 ft 518 kts 252°
2026-04-07 18:44 56.95443 -43.28003 40006 ft 518 kts 252°
2026-04-07 18:45 56.93158 -43.40519 40007 ft 518 kts 251°
2026-04-07 18:45 56.90858 -43.53026 40007 ft 518 kts 251°
2026-04-07 18:46 56.88547 -43.65519 40006 ft 518 kts 251°
2026-04-07 18:46 56.86233 -43.77942 40006 ft 518 kts 251°
2026-04-07 18:47 56.83899 -43.90386 40006 ft 518 kts 251°
2026-04-07 18:47 56.81562 -44.02773 40007 ft 518 kts 251°
2026-04-07 18:48 56.79188 -44.15268 40006 ft 518 kts 251°
2026-04-07 18:48 56.76828 -44.27611 40008 ft 518 kts 251°
2026-04-07 18:49 56.74441 -44.40015 40008 ft 518 kts 251°
2026-04-07 18:49 56.72041 -44.52407 40007 ft 518 kts 251°
2026-04-07 18:50 56.69631 -44.64773 40007 ft 518 kts 250°
2026-04-07 18:50 56.67205 -44.77142 40007 ft 518 kts 250°
2026-04-07 18:51 56.64770 -44.89479 40006 ft 518 kts 250°
2026-04-07 18:51 56.62324 -45.01794 40007 ft 518 kts 250°
2026-04-07 18:52 56.59878 -45.14031 40007 ft 518 kts 250°
2026-04-07 18:52 56.57406 -45.26319 40006 ft 518 kts 250°
2026-04-07 18:53 56.54922 -45.38596 40006 ft 518 kts 250°
2026-04-07 18:53 56.52428 -45.50846 40006 ft 518 kts 250°
2026-04-07 18:54 56.49923 -45.63072 40006 ft 518 kts 250°
2026-04-07 18:54 56.47399 -45.75317 40006 ft 518 kts 250°
2026-04-07 18:55 56.44886 -45.87433 40007 ft 518 kts 249°
2026-04-07 18:55 56.42338 -45.99646 40007 ft 518 kts 249°
2026-04-07 18:56 56.39785 -46.11811 40007 ft 518 kts 249°
2026-04-07 18:56 56.37215 -46.23981 40008 ft 518 kts 249°
2026-04-07 18:57 56.34637 -46.36115 40007 ft 518 kts 249°
2026-04-07 18:57 56.32046 -46.48242 40009 ft 518 kts 249°
2026-04-07 18:58 56.29442 -46.60356 40010 ft 518 kts 249°
2026-04-07 18:58 56.26829 -46.72439 40007 ft 518 kts 249°
2026-04-07 18:59 56.24219 -46.84441 40007 ft 518 kts 249°
2026-04-07 18:59 56.21581 -46.96496 40008 ft 518 kts 249°
2026-04-07 19:00 56.18929 -47.08551 40008 ft 518 kts 249°
2026-04-07 19:00 56.16264 -47.20593 40003 ft 518 kts 248°
2026-04-07 19:01 56.13593 -47.32591 40003 ft 518 kts 248°
2026-04-07 19:02 56.09563 -47.50569 40005 ft 518 kts 248°
2026-04-07 19:02 56.06863 -47.62524 40008 ft 518 kts 248°
2026-04-07 19:03 56.04166 -47.74401 40007 ft 518 kts 248°
2026-04-07 19:03 56.01439 -47.86343 40006 ft 518 kts 248°
2026-04-07 19:04 55.98706 -47.98245 40008 ft 518 kts 248°
2026-04-07 19:04 55.95953 -48.10166 40008 ft 518 kts 248°
2026-04-07 19:05 55.93194 -48.22044 40007 ft 518 kts 248°
2026-04-07 19:05 55.90423 -48.33910 40007 ft 518 kts 248°
2026-04-07 19:06 55.87657 -48.45691 40007 ft 518 kts 247°
2026-04-07 19:06 55.84864 -48.57521 40007 ft 518 kts 247°
2026-04-07 19:07 55.82056 -48.69345 40008 ft 518 kts 247°
2026-04-07 19:07 55.79241 -48.81138 40009 ft 518 kts 247°
2026-04-07 19:08 55.76415 -48.92913 40008 ft 518 kts 247°
2026-04-07 19:08 55.73573 -49.04689 40008 ft 518 kts 247°
2026-04-07 19:09 55.70719 -49.16452 40008 ft 518 kts 247°
2026-04-07 19:09 55.67856 -49.28189 40009 ft 518 kts 246°
2026-04-07 19:10 55.64982 -49.39906 40006 ft 518 kts 246°
2026-04-07 19:10 55.62100 -49.51594 40006 ft 518 kts 246°
2026-04-07 19:11 55.59202 -49.63288 40005 ft 518 kts 246°
2026-04-07 19:11 55.56294 -49.74954 40005 ft 518 kts 246°
2026-04-07 19:12 55.53393 -49.86536 40006 ft 518 kts 246°
2026-04-07 19:12 55.50468 -49.98152 40006 ft 518 kts 246°
2026-04-07 19:13 55.47651 -50.09855 40002 ft 518 kts 247°
2026-04-07 19:13 55.44797 -50.21520 40004 ft 519 kts 247°
2026-04-07 19:14 55.41978 -50.33215 40006 ft 519 kts 247°
2026-04-07 19:14 55.39112 -50.44883 40005 ft 518 kts 247°
2026-04-07 19:15 55.36263 -50.56519 40004 ft 518 kts 247°
2026-04-07 19:15 55.33388 -50.68138 40004 ft 518 kts 246°
2026-04-07 19:16 55.30527 -50.79677 40004 ft 518 kts 246°
2026-04-07 19:16 55.27633 -50.91267 40006 ft 518 kts 246°
2026-04-07 19:17 55.24729 -51.02845 40007 ft 518 kts 246°
2026-04-07 19:17 55.21814 -51.14402 40009 ft 518 kts 246°
2026-04-07 19:18 55.18887 -51.25950 40009 ft 518 kts 246°
2026-04-07 19:18 55.15952 -51.37468 40010 ft 518 kts 246°
2026-04-07 19:19 55.13007 -51.48965 40007 ft 518 kts 246°
2026-04-07 19:19 55.10048 -51.60459 40007 ft 518 kts 246°
2026-04-07 19:20 55.07077 -51.71943 40006 ft 518 kts 246°
2026-04-07 19:20 55.04117 -51.83320 40003 ft 518 kts 246°
2026-04-07 19:21 55.01125 -51.94765 40005 ft 518 kts 245°
2026-04-07 19:21 54.98124 -52.06187 40007 ft 518 kts 245°
2026-04-07 19:22 54.95111 -52.17598 40005 ft 518 kts 245°
2026-04-07 19:22 54.92091 -52.28975 40005 ft 518 kts 245°
2026-04-07 19:23 54.89058 -52.40348 40005 ft 518 kts 245°
2026-04-07 19:23 54.86015 -52.51697 40006 ft 518 kts 245°
2026-04-07 19:24 54.82979 -52.62966 40005 ft 518 kts 245°
2026-04-07 19:24 54.79907 -52.74312 40006 ft 518 kts 245°
2026-04-07 19:25 54.76834 -52.85605 40006 ft 518 kts 245°
2026-04-07 19:25 54.74271 -52.94983 40008 ft 518 kts 245°
2026-04-07 19:26 54.71176 -53.06255 40007 ft 518 kts 245°
2026-04-07 19:26 54.68070 -53.17513 40007 ft 518 kts 244°
2026-04-07 19:27 54.64954 -53.28754 40006 ft 518 kts 244°
2026-04-07 19:27 54.61863 -53.39845 39998 ft 510 kts 244°
2026-04-07 19:28 54.58769 -53.50899 39997 ft 515 kts 244°
2026-04-07 19:28 54.55623 -53.62084 40004 ft 520 kts 244°
2026-04-07 19:29 54.52476 -53.73218 40008 ft 519 kts 244°
2026-04-07 19:29 54.49293 -53.84425 40008 ft 519 kts 244°
2026-04-07 19:30 54.46134 -53.95496 40007 ft 518 kts 244°
2026-04-07 19:30 54.42944 -54.06622 40007 ft 518 kts 244°
2026-04-07 19:31 54.39743 -54.17734 40006 ft 518 kts 244°
2026-04-07 19:31 54.36537 -54.28812 40007 ft 518 kts 244°
2026-04-07 19:32 54.33337 -54.39812 40007 ft 518 kts 244°
2026-04-07 19:32 54.30090 -54.50926 40008 ft 518 kts 243°
2026-04-07 19:33 54.26869 -54.61899 40007 ft 518 kts 243°
2026-04-07 19:33 54.23636 -54.72860 40001 ft 511 kts 243°
2026-04-07 19:34 54.20423 -54.83701 39996 ft 514 kts 243°
2026-04-07 19:34 54.17158 -54.94675 40004 ft 519 kts 243°
2026-04-07 19:35 54.13873 -55.05657 40009 ft 519 kts 243°
2026-04-07 19:35 54.10579 -55.16621 40007 ft 519 kts 243°
2026-04-07 19:36 54.07302 -55.27480 40006 ft 518 kts 243°
2026-04-07 19:36 54.03995 -55.38385 40004 ft 518 kts 243°
2026-04-07 19:37 54.00677 -55.49281 40005 ft 518 kts 243°
2026-04-07 19:37 53.97341 -55.60182 40004 ft 518 kts 243°
2026-04-07 19:38 53.94005 -55.71035 40004 ft 519 kts 243°
2026-04-07 19:38 53.90684 -55.81792 40005 ft 518 kts 242°
2026-04-07 19:39 53.87315 -55.92654 40006 ft 518 kts 242°
2026-04-07 19:39 53.83951 -56.03453 40005 ft 518 kts 242°
2026-04-07 19:40 53.80571 -56.14250 39992 ft 518 kts 242°
2026-04-07 19:40 53.78880 -56.19638 39315 ft 517 kts 242°
2026-04-07 19:40 53.77200 -56.24973 38638 ft 510 kts 242°
2026-04-07 19:40 53.75549 -56.30207 37993 ft 500 kts 242°
2026-04-07 19:41 53.73933 -56.35322 37366 ft 487 kts 242°
2026-04-07 19:41 53.72363 -56.40279 36756 ft 471 kts 242°
2026-04-07 19:41 53.70839 -56.45078 36168 ft 457 kts 242°
2026-04-07 19:41 53.69357 -56.49740 35596 ft 446 kts 242°
2026-04-07 19:42 53.67897 -56.54323 35025 ft 438 kts 242°
2026-04-07 19:42 53.66475 -56.58776 34465 ft 435 kts 242°
2026-04-07 19:42 53.65042 -56.63258 33986 ft 434 kts 242°
2026-04-07 19:42 53.63602 -56.67753 33457 ft 442 kts 242°
2026-04-07 19:43 53.62117 -56.72382 32850 ft 455 kts 242°
2026-04-07 19:43 53.60588 -56.77135 32221 ft 462 kts 242°
2026-04-07 19:43 53.59050 -56.81908 31594 ft 465 kts 242°
2026-04-07 19:43 53.57518 -56.86653 30975 ft 467 kts 242°
2026-04-07 19:44 53.55977 -56.91415 30361 ft 457 kts 242°
2026-04-07 19:44 53.54476 -56.96046 29774 ft 444 kts 242°
2026-04-07 19:44 53.53020 -57.00531 29200 ft 430 kts 242°
2026-04-07 19:44 53.51612 -57.04859 28666 ft 414 kts 242°
2026-04-07 19:45 53.50249 -57.09024 28137 ft 399 kts 241°
2026-04-07 19:45 53.48643 -57.12717 27577 ft 388 kts 225°
2026-04-07 19:45 53.46489 -57.15325 27093 ft 379 kts 208°
2026-04-07 19:45 53.44031 -57.16664 26989 ft 363 kts 191°
2026-04-07 19:46 53.41565 -57.16774 26979 ft 350 kts 174°
2026-04-07 19:46 53.39229 -57.15796 26983 ft 342 kts 162°
2026-04-07 19:46 53.36973 -57.14530 27032 ft 344 kts 162°
2026-04-07 19:46 53.34661 -57.13230 27101 ft 360 kts 162°
2026-04-07 19:47 53.32214 -57.11852 27232 ft 379 kts 162°
2026-04-07 19:47 53.29667 -57.10420 27397 ft 392 kts 162°
2026-04-07 19:47 53.27059 -57.08956 27574 ft 397 kts 162°
2026-04-07 19:47 53.24434 -57.07485 27747 ft 398 kts 162°
2026-04-07 19:48 53.21793 -57.06008 27912 ft 398 kts 162°
2026-04-07 19:48 53.19199 -57.04558 28060 ft 399 kts 162°
2026-04-07 19:48 53.16565 -57.03088 28210 ft 400 kts 162°
2026-04-07 19:48 53.13918 -57.01613 28363 ft 401 kts 162°
2026-04-07 19:49 53.11266 -57.00137 28508 ft 403 kts 162°
2026-04-07 19:49 53.08608 -56.98659 28676 ft 403 kts 162°
2026-04-07 19:49 53.05946 -56.97182 28834 ft 405 kts 162°
2026-04-07 19:49 53.03270 -56.95698 28994 ft 406 kts 162°
2026-04-07 19:50 53.00591 -56.94215 29151 ft 406 kts 162°
2026-04-07 19:50 52.97896 -56.92724 29306 ft 407 kts 162°
2026-04-07 19:50 52.95214 -56.91243 29462 ft 408 kts 162°
2026-04-07 19:50 52.92521 -56.89758 29620 ft 408 kts 162°
2026-04-07 19:51 52.89822 -56.88271 29776 ft 409 kts 162°
2026-04-07 19:51 52.87118 -56.86785 29933 ft 410 kts 162°
2026-04-07 19:51 52.84437 -56.85311 30087 ft 411 kts 162°
2026-04-07 19:51 52.81716 -56.83818 30239 ft 413 kts 162°
2026-04-07 19:52 52.78989 -56.82324 30402 ft 414 kts 162°
2026-04-07 19:52 52.76247 -56.80824 30560 ft 415 kts 162°
2026-04-07 19:52 52.73507 -56.79327 30720 ft 415 kts 162°
2026-04-07 19:52 52.70760 -56.77827 30873 ft 416 kts 162°
2026-04-07 19:53 52.68010 -56.76329 31035 ft 417 kts 162°
2026-04-07 19:53 52.62458 -56.73309 31110 ft 421 kts 162°
2026-04-07 19:54 52.56918 -56.70303 31095 ft 417 kts 162°
2026-04-07 19:54 52.51399 -56.67318 31079 ft 417 kts 162°
2026-04-07 19:55 52.45911 -56.64357 31059 ft 418 kts 162°
2026-04-07 19:55 52.40389 -56.61385 31046 ft 418 kts 162°
2026-04-07 19:56 52.34861 -56.58418 31036 ft 417 kts 162°
2026-04-07 19:56 52.29319 -56.55451 30968 ft 420 kts 162°
2026-04-07 19:56 52.26537 -56.53965 30651 ft 425 kts 162°
2026-04-07 19:57 52.23715 -56.52459 30279 ft 424 kts 162°
2026-04-07 19:57 52.20924 -56.50971 29903 ft 419 kts 162°
2026-04-07 19:57 52.18173 -56.49507 29532 ft 413 kts 162°
2026-04-07 19:57 52.15459 -56.48065 29167 ft 406 kts 162°
2026-04-07 19:58 52.12784 -56.46645 28809 ft 402 kts 162°
2026-04-07 19:58 52.10136 -56.45242 28455 ft 399 kts 162°
2026-04-07 19:58 52.07495 -56.43843 28104 ft 398 kts 162°
2026-04-07 19:58 52.04863 -56.42452 27752 ft 396 kts 162°
2026-04-07 19:59 52.02287 -56.41091 27407 ft 394 kts 162°
2026-04-07 19:59 51.99646 -56.39697 27053 ft 392 kts 162°
2026-04-07 19:59 51.97095 -56.38353 26710 ft 390 kts 162°
2026-04-07 19:59 51.94527 -56.37002 26365 ft 388 kts 162°
2026-04-07 20:00 51.91956 -56.35651 26022 ft 386 kts 162°
2026-04-07 20:00 51.89414 -56.34316 25677 ft 384 kts 162°
2026-04-07 20:00 51.84350 -56.31663 24996 ft 379 kts 162°
2026-04-07 20:01 51.81840 -56.30350 24666 ft 378 kts 162°
2026-04-07 20:01 51.79350 -56.29049 24332 ft 375 kts 162°
2026-04-07 20:01 51.76867 -56.27753 24000 ft 373 kts 162°
2026-04-07 20:01 51.74410 -56.26472 23671 ft 370 kts 162°
2026-04-07 20:02 51.71957 -56.25195 23343 ft 368 kts 162°
2026-04-07 20:02 51.69524 -56.23929 23016 ft 366 kts 162°
2026-04-07 20:02 51.67105 -56.22673 22693 ft 365 kts 162°
2026-04-07 20:02 51.64725 -56.21437 22373 ft 363 kts 162°
2026-04-07 20:03 51.62319 -56.20191 22052 ft 361 kts 162°
2026-04-07 20:03 51.59933 -56.18955 21732 ft 360 kts 162°
2026-04-07 20:03 51.57556 -56.17726 21411 ft 358 kts 162°
2026-04-07 20:03 51.55192 -56.16505 21097 ft 356 kts 163°
2026-04-07 20:04 51.52843 -56.15292 20779 ft 354 kts 163°
2026-04-07 20:04 51.50498 -56.14084 20468 ft 353 kts 163°
2026-04-07 20:04 51.48158 -56.12878 20155 ft 351 kts 163°
2026-04-07 20:04 51.45838 -56.11685 19844 ft 349 kts 163°
2026-04-07 20:05 51.43553 -56.10510 19539 ft 348 kts 163°
2026-04-07 20:05 51.41261 -56.09334 19232 ft 346 kts 163°
2026-04-07 20:05 51.38985 -56.08098 18985 ft 342 kts 158°
2026-04-07 20:05 51.36819 -56.06624 18996 ft 339 kts 158°
2026-04-07 20:06 51.34597 -56.05215 19004 ft 344 kts 159°
2026-04-07 20:06 51.32369 -56.03794 19011 ft 345 kts 158°
2026-04-07 20:06 51.30148 -56.02322 19016 ft 346 kts 158°
2026-04-07 20:06 51.27927 -56.00850 19019 ft 346 kts 158°
2026-04-07 20:07 51.25705 -55.99405 19020 ft 345 kts 158°
2026-04-07 20:07 51.23479 -55.97961 19021 ft 345 kts 158°
2026-04-07 20:07 51.21249 -55.96506 19020 ft 345 kts 158°
2026-04-07 20:07 51.19027 -55.95056 19020 ft 345 kts 158°
2026-04-07 20:08 51.16801 -55.93607 19018 ft 345 kts 158°
2026-04-07 20:08 51.14572 -55.92159 19020 ft 345 kts 158°
2026-04-07 20:08 51.12373 -55.90732 19020 ft 345 kts 158°
2026-04-07 20:08 51.10148 -55.89289 19020 ft 346 kts 158°
2026-04-07 20:09 51.07924 -55.87847 19020 ft 345 kts 158°
2026-04-07 20:09 51.05696 -55.86406 19019 ft 345 kts 158°
2026-04-07 20:09 51.03471 -55.84968 19021 ft 346 kts 158°
2026-04-07 20:09 51.01239 -55.83526 19020 ft 346 kts 158°
2026-04-07 20:10 50.99015 -55.82091 19021 ft 345 kts 158°
2026-04-07 20:10 50.96786 -55.80654 19019 ft 345 kts 158°
2026-04-07 20:10 50.94559 -55.79221 19019 ft 345 kts 158°
2026-04-07 20:10 50.92337 -55.77791 19021 ft 345 kts 158°
2026-04-07 20:11 50.90114 -55.76363 19018 ft 345 kts 158°
2026-04-07 20:11 50.87885 -55.74932 19019 ft 345 kts 158°
2026-04-07 20:11 50.86412 -55.73988 19019 ft 345 kts 158°
2026-04-07 20:11 50.84181 -55.72558 19020 ft 345 kts 159°
2026-04-07 20:12 50.81948 -55.71129 19021 ft 345 kts 159°
2026-04-07 20:12 50.78995 -55.69241 19021 ft 345 kts 159°
2026-04-07 20:12 50.77492 -55.68281 19020 ft 345 kts 159°
2026-04-07 20:12 50.75264 -55.66860 19021 ft 345 kts 159°
2026-04-07 20:13 50.73034 -55.65438 19021 ft 345 kts 159°
2026-04-07 20:13 50.70805 -55.64018 19020 ft 346 kts 159°
2026-04-07 20:13 50.68605 -55.62619 19021 ft 345 kts 159°
2026-04-07 20:13 50.66378 -55.61204 19021 ft 345 kts 159°
2026-04-07 20:14 50.64147 -55.59787 19021 ft 345 kts 159°
2026-04-07 20:14 50.61919 -55.58375 19020 ft 345 kts 159°
2026-04-07 20:14 50.59687 -55.56961 19020 ft 345 kts 159°
2026-04-07 20:14 50.57467 -55.55556 19020 ft 345 kts 159°
2026-04-07 20:15 50.55235 -55.54144 19019 ft 345 kts 159°
2026-04-07 20:15 50.53005 -55.52736 19020 ft 345 kts 159°
2026-04-07 20:15 50.50775 -55.51329 19021 ft 345 kts 159°
2026-04-07 20:15 50.48541 -55.49921 19021 ft 345 kts 159°
2026-04-07 20:16 50.46308 -55.48515 19020 ft 345 kts 159°
2026-04-07 20:16 50.44082 -55.47114 19021 ft 345 kts 159°
2026-04-07 20:16 50.41851 -55.45713 19021 ft 345 kts 159°
2026-04-07 20:16 50.39620 -55.44312 19021 ft 345 kts 159°
2026-04-07 20:17 50.37386 -55.42911 19021 ft 345 kts 159°
2026-04-07 20:17 50.35158 -55.41516 19021 ft 345 kts 159°
2026-04-07 20:17 50.32958 -55.40138 19021 ft 345 kts 159°
2026-04-07 20:17 50.30730 -55.38745 19022 ft 345 kts 159°
2026-04-07 20:18 50.28492 -55.37348 19022 ft 345 kts 159°
2026-04-07 20:18 50.26262 -55.35956 19020 ft 345 kts 159°
2026-04-07 20:18 50.24037 -55.34570 19022 ft 345 kts 159°
2026-04-07 20:18 50.21799 -55.33176 19023 ft 345 kts 159°
2026-04-07 20:19 50.19572 -55.31791 19021 ft 345 kts 159°
2026-04-07 20:19 50.17333 -55.30399 19022 ft 345 kts 159°
2026-04-07 20:19 50.15102 -55.29014 19023 ft 345 kts 159°
2026-04-07 20:19 50.12866 -55.27627 19022 ft 345 kts 159°
2026-04-07 20:20 50.10635 -55.26245 19023 ft 345 kts 159°
2026-04-07 20:20 50.08407 -55.24866 19022 ft 345 kts 159°
2026-04-07 20:20 50.06171 -55.23484 19023 ft 345 kts 159°
2026-04-07 20:20 50.03931 -55.22100 19021 ft 345 kts 159°
2026-04-07 20:21 50.01723 -55.20738 19023 ft 345 kts 159°
2026-04-07 20:21 49.99490 -55.19361 19021 ft 345 kts 159°
2026-04-07 20:21 49.97256 -55.17986 19022 ft 345 kts 159°
2026-04-07 20:21 49.95023 -55.16612 19022 ft 345 kts 159°
2026-04-07 20:22 49.92793 -55.15241 19022 ft 345 kts 159°
2026-04-07 20:22 49.90563 -55.13872 19022 ft 345 kts 159°
2026-04-07 20:22 49.88325 -55.12499 19021 ft 345 kts 159°
2026-04-07 20:22 49.86085 -55.11127 19021 ft 345 kts 159°
2026-04-07 20:23 49.83852 -55.09760 19021 ft 345 kts 159°
2026-04-07 20:23 49.81619 -55.08394 19024 ft 345 kts 159°
2026-04-07 20:23 49.79385 -55.07029 19024 ft 345 kts 159°
2026-04-07 20:23 49.77173 -55.05679 19021 ft 345 kts 159°
2026-04-07 20:24 49.74936 -55.04315 19024 ft 345 kts 159°
2026-04-07 20:24 49.72702 -55.02954 19023 ft 345 kts 159°
2026-04-07 20:24 49.70462 -55.01591 19023 ft 345 kts 159°
2026-04-07 20:24 49.68227 -55.00232 19022 ft 345 kts 159°
2026-04-07 20:25 49.65995 -54.98876 19024 ft 345 kts 159°
2026-04-07 20:25 49.63757 -54.97519 19023 ft 345 kts 159°
2026-04-07 20:25 49.61527 -54.96167 19024 ft 345 kts 159°
2026-04-07 20:25 49.59284 -54.94809 19023 ft 345 kts 159°
2026-04-07 20:26 49.57049 -54.93457 19023 ft 345 kts 159°
2026-04-07 20:26 49.54817 -54.92108 19023 ft 345 kts 159°
2026-04-07 20:26 49.52580 -54.90757 19023 ft 345 kts 159°
2026-04-07 20:26 49.50343 -54.89408 19024 ft 345 kts 159°
2026-04-07 20:27 49.48105 -54.88059 19022 ft 345 kts 159°
2026-04-07 20:27 49.45872 -54.86716 19023 ft 345 kts 159°
2026-04-07 20:27 49.43633 -54.85369 19024 ft 345 kts 159°
2026-04-07 20:27 49.41395 -54.84025 19022 ft 345 kts 159°
2026-04-07 20:28 49.39155 -54.82680 19024 ft 345 kts 159°
2026-04-07 20:28 49.36919 -54.81340 19024 ft 345 kts 159°
2026-04-07 20:28 49.34710 -54.80016 19022 ft 345 kts 159°
2026-04-07 20:28 49.32471 -54.78676 19025 ft 345 kts 159°
2026-04-07 20:29 49.30230 -54.77336 19022 ft 345 kts 159°
2026-04-07 20:29 49.27994 -54.76002 19024 ft 345 kts 159°
2026-04-07 20:29 49.25747 -54.74661 19024 ft 345 kts 159°
2026-04-07 20:29 49.23509 -54.73327 19024 ft 345 kts 159°
2026-04-07 20:30 49.21255 -54.71984 18745 ft 350 kts 159°
2026-04-07 20:30 49.18998 -54.70642 18392 ft 347 kts 159°
2026-04-07 20:30 49.16762 -54.69312 18204 ft 337 kts 159°
2026-04-07 20:30 49.14590 -54.68022 18177 ft 336 kts 159°
2026-04-07 20:31 49.12384 -54.66715 18005 ft 342 kts 159°
2026-04-07 20:31 49.10167 -54.65401 17737 ft 341 kts 159°
2026-04-07 20:31 49.07968 -54.64099 17441 ft 338 kts 159°
2026-04-07 20:31 49.05812 -54.62823 17150 ft 336 kts 159°
2026-04-07 20:32 49.03639 -54.61539 16850 ft 334 kts 159°
2026-04-07 20:32 49.01474 -54.60261 16554 ft 333 kts 159°
2026-04-07 20:32 48.99295 -54.58976 16257 ft 331 kts 159°
2026-04-07 20:32 48.97145 -54.57708 15963 ft 330 kts 159°
2026-04-07 20:33 48.95032 -54.56464 15679 ft 328 kts 159°
2026-04-07 20:33 48.92907 -54.55215 15383 ft 327 kts 159°
2026-04-07 20:33 48.90783 -54.53967 15094 ft 325 kts 159°
2026-04-07 20:33 48.88636 -54.53042 14927 ft 314 kts 169°
2026-04-07 20:34 48.86527 -54.52395 15001 ft 311 kts 169°
2026-04-07 20:34 48.84394 -54.51704 15010 ft 316 kts 168°
2026-04-07 20:34 48.82232 -54.50993 15034 ft 318 kts 168°
2026-04-07 20:34 48.80060 -54.50295 15067 ft 319 kts 169°
2026-04-07 20:35 48.77887 -54.49602 15085 ft 319 kts 169°
2026-04-07 20:35 48.75713 -54.48906 15107 ft 319 kts 169°
2026-04-07 20:35 48.73543 -54.48208 15129 ft 319 kts 168°
2026-04-07 20:35 48.71368 -54.47511 15152 ft 319 kts 168°
2026-04-07 20:36 48.69194 -54.46816 15171 ft 319 kts 169°
2026-04-07 20:36 48.67019 -54.46121 15187 ft 320 kts 169°
2026-04-07 20:36 48.64845 -54.45427 15214 ft 319 kts 169°
2026-04-07 20:36 48.62674 -54.44734 15235 ft 319 kts 169°
2026-04-07 20:37 48.60496 -54.44039 15257 ft 320 kts 169°
2026-04-07 20:37 48.58324 -54.43347 15279 ft 320 kts 169°
2026-04-07 20:37 48.56142 -54.42653 15301 ft 320 kts 169°
2026-04-07 20:37 48.53966 -54.41961 15327 ft 320 kts 169°
2026-04-07 20:38 48.51776 -54.41265 15345 ft 320 kts 169°
2026-04-07 20:38 48.49596 -54.40573 15367 ft 320 kts 169°
2026-04-07 20:38 48.47441 -54.39890 15388 ft 320 kts 169°
2026-04-07 20:38 48.45259 -54.39198 15414 ft 321 kts 169°
2026-04-07 20:39 48.43594 -54.38671 15428 ft 321 kts 169°
2026-04-07 20:39 48.42989 -54.38479 15435 ft 321 kts 169°
2026-04-07 20:39 48.42472 -54.38316 15440 ft 321 kts 169°
2026-04-07 20:39 48.41380 -54.37971 15450 ft 321 kts 169°
2026-04-07 20:40 48.39165 -54.37270 15474 ft 320 kts 169°
2026-04-07 20:40 48.36978 -54.36580 15496 ft 321 kts 169°
2026-04-07 20:40 48.34797 -54.35891 15517 ft 321 kts 169°
2026-04-07 20:40 48.32614 -54.35203 15536 ft 321 kts 169°
2026-04-07 20:41 48.30423 -54.34513 15570 ft 321 kts 169°
2026-04-07 20:41 48.28233 -54.33824 15588 ft 322 kts 169°
2026-04-07 20:41 48.26064 -54.33142 15613 ft 322 kts 169°
2026-04-07 20:41 48.23871 -54.32453 15637 ft 322 kts 169°
2026-04-07 20:42 48.21683 -54.31766 15658 ft 322 kts 169°
2026-04-07 20:42 48.19490 -54.31079 15687 ft 322 kts 169°
2026-04-07 20:42 48.17297 -54.30391 15705 ft 322 kts 169°
2026-04-07 20:42 48.15101 -54.29704 15728 ft 322 kts 169°
2026-04-07 20:43 48.12901 -54.29015 15665 ft 324 kts 169°
2026-04-07 20:43 48.10685 -54.28323 15432 ft 325 kts 169°
2026-04-07 20:43 48.08467 -54.27630 15154 ft 323 kts 169°
2026-04-07 20:43 48.06281 -54.26948 14997 ft 316 kts 169°
2026-04-07 20:44 48.04141 -54.26281 14994 ft 313 kts 169°
2026-04-07 20:44 48.01995 -54.25613 14995 ft 316 kts 169°
2026-04-07 20:44 47.99830 -54.24940 15000 ft 318 kts 169°
2026-04-07 20:44 47.97663 -54.24266 15001 ft 319 kts 169°
2026-04-07 20:45 47.95485 -54.23589 15003 ft 319 kts 169°
2026-04-07 20:45 47.93317 -54.22916 15006 ft 319 kts 169°
2026-04-07 20:45 47.91142 -54.22242 15007 ft 319 kts 169°
2026-04-07 20:45 47.88995 -54.21576 15007 ft 319 kts 169°
2026-04-07 20:46 47.86822 -54.20904 15007 ft 318 kts 169°
2026-04-07 20:46 47.84655 -54.20234 15006 ft 318 kts 169°
2026-04-07 20:46 47.82485 -54.19563 15006 ft 318 kts 169°
2026-04-07 20:46 47.80314 -54.18892 15005 ft 318 kts 169°
2026-04-07 20:47 47.78151 -54.18225 15006 ft 318 kts 169°
2026-04-07 20:47 47.75979 -54.17556 15006 ft 318 kts 169°
2026-04-07 20:47 47.73811 -54.16888 15005 ft 318 kts 169°
2026-04-07 20:47 47.71689 -54.16177 14991 ft 304 kts 165°
2026-04-07 20:48 47.69870 -54.14707 14954 ft 296 kts 140°
2026-04-07 20:48 47.68620 -54.12353 14970 ft 298 kts 117°
2026-04-07 20:48 47.68082 -54.09389 14981 ft 301 kts 94°
2026-04-07 20:48 47.68102 -54.06274 15021 ft 303 kts 88°
2026-04-07 20:49 47.68178 -54.03147 15016 ft 304 kts 88°
2026-04-07 20:49 47.68244 -54.00009 15009 ft 304 kts 88°
2026-04-07 20:49 47.68298 -53.96879 15009 ft 303 kts 88°
2026-04-07 20:49 47.68354 -53.93749 15008 ft 303 kts 88°
2026-04-07 20:50 47.68412 -53.90622 15007 ft 303 kts 88°
2026-04-07 20:50 47.68469 -53.87486 15005 ft 304 kts 88°
2026-04-07 20:50 47.68524 -53.84354 15006 ft 303 kts 88°
2026-04-07 20:50 47.68578 -53.81221 15003 ft 303 kts 88°
2026-04-07 20:51 47.68632 -53.78097 15002 ft 303 kts 88°
2026-04-07 20:51 47.68684 -53.74974 15001 ft 303 kts 88°
2026-04-07 20:51 47.68736 -53.71849 15001 ft 303 kts 88°
2026-04-07 20:51 47.68787 -53.68731 15001 ft 303 kts 89°
2026-04-07 20:52 47.68837 -53.65595 15002 ft 303 kts 89°
2026-04-07 20:52 47.68886 -53.62469 15002 ft 303 kts 89°
2026-04-07 20:52 47.68934 -53.59389 15002 ft 303 kts 89°
2026-04-07 20:52 47.68981 -53.56255 15002 ft 303 kts 89°
2026-04-07 20:53 47.69028 -53.53137 15002 ft 303 kts 89°
2026-04-07 20:53 47.69074 -53.50003 15002 ft 303 kts 89°
2026-04-07 20:53 47.69119 -53.46872 15003 ft 303 kts 89°
2026-04-07 20:53 47.69163 -53.43750 15003 ft 303 kts 89°
2026-04-07 20:54 47.69206 -53.40610 15002 ft 304 kts 89°
2026-04-07 20:54 47.69249 -53.37483 15002 ft 304 kts 89°
2026-04-07 20:54 47.69290 -53.34346 15002 ft 304 kts 89°
2026-04-07 20:54 47.69331 -53.31211 15007 ft 303 kts 89°
2026-04-07 20:55 47.69371 -53.28077 15003 ft 303 kts 89°
2026-04-07 20:55 47.69410 -53.24949 15005 ft 303 kts 89°
2026-04-07 20:55 47.69448 -53.21819 15003 ft 303 kts 89°
2026-04-07 20:55 47.69486 -53.18683 15003 ft 303 kts 89°
2026-04-07 20:56 47.69522 -53.15565 15003 ft 303 kts 89°
2026-04-07 20:56 47.69557 -53.12474 15003 ft 303 kts 89°
2026-04-07 20:56 47.69592 -53.09348 15003 ft 303 kts 89°
2026-04-07 20:56 47.69626 -53.06215 15003 ft 303 kts 89°
2026-04-07 20:57 47.69659 -53.03090 15003 ft 302 kts 89°
2026-04-07 20:57 47.69683 -53.01043 14998 ft 293 kts 88°
2026-04-07 20:57 47.69847 -52.98104 14991 ft 279 kts 85°
2026-04-07 20:57 47.69948 -52.95269 14989 ft 271 kts 88°
2026-04-07 20:58 47.70040 -52.92474 14987 ft 272 kts 86°
2026-04-07 20:58 47.70170 -52.89656 14975 ft 276 kts 86°
2026-04-07 20:58 47.70312 -52.86765 13779 ft 301 kts 85°
2026-04-07 20:58 47.70493 -52.83337 11574 ft 358 kts 85°
2026-04-07 20:59 47.70620 -52.79733 11477 ft 331 kts 87°
2026-04-07 20:59 47.70733 -52.76493 11655 ft 299 kts 86°
2026-04-07 20:59 47.70872 -52.73557 11703 ft 273 kts 85°
2026-04-07 20:59 47.71018 -52.70754 11046 ft 274 kts 85°
2026-04-07 21:00 47.71156 -52.67917 10289 ft 278 kts 86°
2026-04-07 21:00 47.71421 -52.62180 8793 ft 281 kts 86°
2026-04-07 21:00 47.71558 -52.59259 8040 ft 281 kts 86°
2026-04-07 21:01 47.71691 -52.56366 7293 ft 279 kts 86°
2026-04-07 21:01 47.71487 -52.53566 6453 ft 279 kts 110°
2026-04-07 21:01 47.70420 -52.51182 5631 ft 278 kts 136°
2026-04-07 21:01 47.68767 -52.49777 4834 ft 275 kts 163°
2026-04-07 21:02 47.66893 -52.49478 4060 ft 269 kts 184°
2026-04-07 21:02 47.65161 -52.50447 3234 ft 267 kts 215°
2026-04-07 21:02 47.63916 -52.52428 2468 ft 263 kts 240°
2026-04-07 21:02 47.63410 -52.54882 2436 ft 233 kts 263°
2026-04-07 21:03 47.63299 -52.57164 2323 ft 215 kts 266°
2026-04-07 21:03 47.63207 -52.59327 2064 ft 207 kts 266°
2026-04-07 21:03 47.63108 -52.61447 1780 ft 204 kts 266°
2026-04-07 21:03 47.63011 -52.63516 1508 ft 199 kts 266°
2026-04-07 21:04 47.62918 -52.65484 1487 ft 184 kts 266°
2026-04-07 21:04 47.62829 -52.67355 1312 ft 188 kts 266°
2026-04-07 21:04 47.62741 -52.69214 1050 ft 164 kts 266°
2026-04-07 21:04 47.62670 -52.70706 852 ft 133 kts 266°
2026-04-07 21:05 47.62608 -52.71993 687 ft 120 kts 266°
2026-04-07 21:05 47.62551 -52.73188 549 ft 115 kts 266°
2026-04-07 21:05 47.62497 -52.74336 480 ft 102 kts 266°
2026-04-07 21:05 47.62474 -52.75050 481 ft 30 kts 271°
2026-04-07 21:06 47.62461 -52.75292 480 ft 23 kts 265°
2026-04-07 21:06 47.62449 -52.75522 482 ft 22 kts 265°
2026-04-07 21:06 47.62439 -52.75733 485 ft 20 kts 265°
2026-04-07 21:06 47.62429 -52.75933 486 ft 19 kts 265°
2026-04-07 21:07 47.62419 -52.76124 487 ft 20 kts 265°
2026-04-07 21:07 47.62407 -52.76358 488 ft 26 kts 265°
2026-04-07 21:07 47.62390 -52.76656 484 ft 32 kts 265°
2026-04-07 21:07 47.62378 -52.76909 485 ft 13 kts 254°
2026-04-07 21:08 47.62370 -52.76979 485 ft 1 kts
2026-04-07 21:08 47.62385 -52.76948 483 ft 6 kts 75°
2026-04-07 21:08 47.62388 -52.76854 485 ft 12 kts 87°
2026-04-07 21:08 47.62392 -52.76707 480 ft 17 kts 87°
2026-04-07 21:09 47.62399 -52.76508 488 ft 22 kts 87°
2026-04-07 21:09 47.62407 -52.76249 489 ft 26 kts 88°
2026-04-07 21:09 47.62416 -52.76004 481 ft 31 kts 82°
2026-04-07 21:09 47.62439 -52.75608 484 ft 46 kts 85°
2026-04-07 21:10 47.62461 -52.75157 476 ft 30 kts 88°
2026-04-07 21:10 47.62363 -52.74903 481 ft 29 kts 136°
2026-04-07 21:10 47.62212 -52.74717 479 ft 28 kts 137°
2026-04-07 21:10 47.62094 -52.74650 481 ft 12 kts 231°
2026-04-07 21:11 47.62052 -52.74724 478 ft 9 kts 228°
2026-04-07 21:11 47.62002 -52.74811 480 ft 18 kts 230°
2026-04-07 21:11 47.61965 -52.74864 478 ft 1 kts 177°
2026-04-07 21:11 47.61942 -52.74839 480 ft 0 kts 137°